SIA524 WSSS-VOMM

Flight info

Callsign SIA524
Flight time N/A
Altitude 38000
Route AROSO3A AROSO Y513 KALIL Y504 BILIK G582 PUGER P574 GIRNA V6 AVMOR AVMOR2F
Aircraft A359/H-SDE1E2E3GHIJ1J2J3J5M1P2RWXYZ/LB1D1

Departure

Time N/A
Airport Singapore Changi Airport (WSSS)

Arrival

Time 2026-04-23 15:57
Airport Chennai International Airport (VOMM)
Time Latitude Longitude Altitude Speed Heading
2026-04-23 15:33 12.63546 81.64166 33928 ft 483 kts 278°
2026-04-23 15:33 12.64252 81.60797 33104 ft 485 kts 278°
2026-04-23 15:33 12.64961 81.57412 32331 ft 486 kts 278°
2026-04-23 15:34 12.65671 81.54023 31547 ft 487 kts 279°
2026-04-23 15:34 12.66383 81.50627 30754 ft 489 kts 279°
2026-04-23 15:34 12.67095 81.47225 30081 ft 488 kts 279°
2026-04-23 15:34 12.67806 81.43845 29445 ft 484 kts 279°
2026-04-23 15:35 12.68508 81.40491 28859 ft 479 kts 280°
2026-04-23 15:35 12.69202 81.37174 28291 ft 474 kts 280°
2026-04-23 15:35 12.69889 81.33890 27730 ft 469 kts 280°
2026-04-23 15:35 12.70567 81.30640 27175 ft 465 kts 280°
2026-04-23 15:36 12.71241 81.27412 26621 ft 461 kts 280°
2026-04-23 15:36 12.71908 81.24210 26070 ft 457 kts 281°
2026-04-23 15:36 12.72569 81.21038 25548 ft 454 kts 281°
2026-04-23 15:36 12.73224 81.17891 25013 ft 450 kts 281°
2026-04-23 15:37 12.73875 81.14765 24493 ft 447 kts 281°
2026-04-23 15:37 12.74521 81.11659 23977 ft 444 kts 281°
2026-04-23 15:37 12.74945 81.09619 23631 ft 442 kts 281°
2026-04-23 15:37 12.75790 81.05555 23317 ft 427 kts 281°
2026-04-23 15:38 12.76400 81.02621 23160 ft 415 kts 281°
2026-04-23 15:38 12.76991 80.99775 22973 ft 403 kts 281°
2026-04-23 15:38 12.77567 80.97001 22792 ft 392 kts 281°
2026-04-23 15:38 12.78124 80.94307 22617 ft 381 kts 281°
2026-04-23 15:39 12.78663 80.91686 22447 ft 371 kts 281°
2026-04-23 15:39 12.79188 80.89133 22282 ft 361 kts 281°
2026-04-23 15:39 12.79706 80.86637 21930 ft 357 kts 281°
2026-04-23 15:39 12.80223 80.84158 21525 ft 355 kts 282°
2026-04-23 15:40 12.80974 80.81764 21178 ft 351 kts 294°
2026-04-23 15:40 12.82036 80.79524 20833 ft 348 kts 297°
2026-04-23 15:40 12.83141 80.77332 20497 ft 345 kts 297°
2026-04-23 15:40 12.84237 80.75160 20150 ft 341 kts 297°
2026-04-23 15:41 12.85316 80.73006 19815 ft 338 kts 297°
2026-04-23 15:41 12.86385 80.70869 19481 ft 335 kts 297°
2026-04-23 15:41 12.87444 80.68747 19145 ft 333 kts 297°
2026-04-23 15:41 12.88493 80.66647 18821 ft 330 kts 297°
2026-04-23 15:42 12.89534 80.64559 18497 ft 328 kts 297°
2026-04-23 15:42 12.90567 80.62485 18173 ft 325 kts 298°
2026-04-23 15:42 12.91592 80.60429 17822 ft 323 kts 298°
2026-04-23 15:42 12.92606 80.58392 17492 ft 319 kts 298°
2026-04-23 15:43 12.93606 80.56379 17173 ft 315 kts 298°
2026-04-23 15:43 12.94590 80.54391 16876 ft 311 kts 298°
2026-04-23 15:43 12.95570 80.52421 16564 ft 309 kts 298°
2026-04-23 15:43 12.96543 80.50465 16260 ft 308 kts 298°
2026-04-23 15:44 12.97515 80.48515 15958 ft 307 kts 298°
2026-04-23 15:44 12.98487 80.46564 15645 ft 307 kts 299°
2026-04-23 15:44 12.99467 80.44596 15027 ft 316 kts 298°
2026-04-23 15:44 13.00478 80.42562 14447 ft 323 kts 298°
2026-04-23 15:45 13.01499 80.40504 14047 ft 323 kts 298°
2026-04-23 15:45 13.02517 80.38454 13690 ft 322 kts 298°
2026-04-23 15:45 13.03530 80.36413 13299 ft 320 kts 299°
2026-04-23 15:45 13.04537 80.34384 12909 ft 318 kts 299°
2026-04-23 15:46 13.05538 80.32367 12512 ft 317 kts 299°
2026-04-23 15:46 13.06533 80.30360 12123 ft 315 kts 299°
2026-04-23 15:46 13.07524 80.28361 11747 ft 313 kts 299°
2026-04-23 15:46 13.08508 80.26377 11371 ft 312 kts 299°
2026-04-23 15:47 13.09489 80.24398 10988 ft 310 kts 299°
2026-04-23 15:47 13.10376 80.22414 10597 ft 311 kts 291°
2026-04-23 15:47 13.10655 80.20220 10194 ft 314 kts 265°
2026-04-23 15:47 13.10122 80.18061 9815 ft 313 kts 251°
2026-04-23 15:48 13.09368 80.15987 9205 ft 307 kts 249°
2026-04-23 15:48 13.08609 80.13944 8452 ft 305 kts 249°
2026-04-23 15:48 13.07867 80.11921 7758 ft 301 kts 249°
2026-04-23 15:48 13.07140 80.09923 7080 ft 297 kts 249°
2026-04-23 15:49 13.06426 80.07953 6427 ft 293 kts 249°
2026-04-23 15:49 13.05725 80.06007 5741 ft 289 kts 249°
2026-04-23 15:49 13.05030 80.04088 5050 ft 286 kts 248°
2026-04-23 15:49 13.04308 80.02204 4390 ft 282 kts 246°
2026-04-23 15:50 13.03600 80.00370 3975 ft 269 kts 246°
2026-04-23 15:50 13.02939 79.98657 3845 ft 249 kts 247°
2026-04-23 15:50 13.02323 79.97055 3832 ft 235 kts 246°
2026-04-23 15:50 13.01727 79.95500 3833 ft 235 kts 246°
2026-04-23 15:51 13.01125 79.93945 3830 ft 235 kts 246°
2026-04-23 15:51 13.00215 79.92585 3841 ft 231 kts 218°
2026-04-23 15:51 12.98799 79.91899 3815 ft 225 kts 186°
2026-04-23 15:51 12.97264 79.92024 3835 ft 222 kts 163°
2026-04-23 15:52 12.95785 79.92499 3821 ft 224 kts 160°
2026-04-23 15:52 12.94320 79.93033 3821 ft 222 kts 159°
2026-04-23 15:52 12.92908 79.93561 3834 ft 211 kts 159°
2026-04-23 15:52 12.91671 79.94312 3837 ft 208 kts 129°
2026-04-23 15:53 12.91205 79.95650 3835 ft 196 kts 88°
2026-04-23 15:53 12.91502 79.96956 3901 ft 190 kts 69°
2026-04-23 15:53 12.92039 79.98220 3703 ft 195 kts 69°
2026-04-23 15:53 12.92534 79.99542 3239 ft 204 kts 72°
2026-04-23 15:54 12.93035 80.00924 2862 ft 208 kts 71°
2026-04-23 15:54 12.93555 80.02299 2575 ft 206 kts 70°
2026-04-23 15:54 12.94066 80.03661 2318 ft 202 kts 71°
2026-04-23 15:54 12.94554 80.04968 2081 ft 190 kts 71°
2026-04-23 15:55 12.95017 80.06202 1851 ft 181 kts 72°
2026-04-23 15:55 12.95459 80.07384 1630 ft 173 kts 72°
2026-04-23 15:55 12.95878 80.08505 1399 ft 165 kts 72°
2026-04-23 15:55 12.96281 80.09582 1200 ft 158 kts 73°
2026-04-23 15:56 12.96665 80.10615 1006 ft 153 kts 74°
2026-04-23 15:56 12.96915 80.11284 857 ft 151 kts 73°
2026-04-23 15:56 12.97286 80.12288 687 ft 152 kts 73°
2026-04-23 15:56 12.97677 80.13295 513 ft 152 kts 70°
2026-04-23 15:57 12.98178 80.14636 277 ft 153 kts 73°
2026-04-23 15:57 12.98553 80.15656 69 ft 151 kts 72°
2026-04-23 15:57 12.98896 80.16583 55 ft 115 kts 69°
2026-04-23 15:57 12.99076 80.17061 53 ft 29 kts 69°
2026-04-23 15:58 12.99108 80.17146 52 ft 7 kts 69°
2026-04-23 15:58 12.99105 80.17198 51 ft 7 kts 123°
2026-04-23 15:58 12.99073 80.17209 52 ft 7 kts 163°
2026-04-23 15:58 12.99023 80.17225 54 ft 8 kts 163°
2026-04-23 15:59 12.98969 80.17237 54 ft 8 kts 179°
2026-04-23 15:59 12.98936 80.17210 55 ft 6 kts 243°
2026-04-23 15:59 12.98918 80.17163 54 ft 8 kts 249°
2026-04-23 15:59 12.98895 80.17101 54 ft 10 kts 249°
2026-04-23 16:00 12.98864 80.17017 57 ft 15 kts 249°
2026-04-23 16:00 12.98823 80.16910 55 ft 17 kts 249°
2026-04-23 16:00 12.98779 80.16793 55 ft 18 kts 249°
2026-04-23 16:00 12.98731 80.16667 56 ft 20 kts 249°
2026-04-23 16:01 12.98680 80.16532 54 ft 21 kts 249°
2026-04-23 16:01 12.98626 80.16389 55 ft 22 kts 249°
2026-04-23 16:01 12.98572 80.16245 54 ft 20 kts 249°
2026-04-23 16:01 12.98539 80.16159 55 ft 11 kts 249°
2026-04-23 16:02 12.98501 80.16132 52 ft 7 kts 179°
2026-04-23 16:02 12.98444 80.16152 55 ft 10 kts 160°
2026-04-23 16:02 12.98393 80.16177 53 ft 4 kts 130°
2026-04-23 16:02 12.98392 80.16213 54 ft 9 kts 82°
2026-04-23 16:03 12.98417 80.16293 54 ft 13 kts 71°
2026-04-23 16:03 12.98435 80.16362 57 ft 3 kts 104°
2026-04-23 16:03 12.98415 80.16374 53 ft 6 kts 156°
2026-04-23 16:03 12.98384 80.16385 54 ft 3 kts 160°
2026-04-23 16:04 12.98379 80.16387 55 ft 0 kts 160°